Location: Newark
(21.0333°N, 105.8500°E)
Time: 19:11:17
(UTC+00:00)

Envisat - Pass Details

Date: 10 December 2019
Orbit: 764 x 766 km, 98.1° (Epoch: 28 January)

Event Time Altitude Azimuth Distance (km) Brightness Sun altitude
Rises 10:48:16 0° 157° (SSE) 3,215 6.2 -7.8°
Reaches altitude 10° 10:50:36 10° 152° (SSE) 2,291 5.4 -8.3°
Maximum altitude 10:55:31 54° 76° (ENE) 923 3.1 -9.4°
Drops below altitude 10° 11:00:26 10° 360° (N) 2,298 5.3 -10.5°
Sets 11:02:47 0° 356° (N) 3,226 6.1 -11.0°
